Location: Unspecified
(0.0000°N, 0.0000°E)
Time: 17:43:46
(UTC+00:00)

ARIANE 6 FM1 Upper Stage - Pass Details

Date: 15 May 2026
Orbit: 526 x 601 km, 62.0° (Epoch: 21 May)

Event Time Altitude Azimuth Distance (km) Brightness Sun altitude
Rises 19:54:13 0° 314° (NW) 2,660 7.2 -27.7°
Reaches altitude 10° 19:56:41 10° 300° (WNW) 1,783 6.2 -28.3°
Enters shadow 19:59:56 24° 246° (WSW) 1,141 4.6 -29.0°
